{"data":{"norad_id":53575,"epoch":"2026-05-25T04:00:46.307232Z","epoch_age_seconds":57619,"freshness":"FRESH","line1":"1 53575U 22101BA  26145.16720263  .00000154  00000+0  27795-4 0  9999","line2":"2 53575  53.2138  70.5893 0001383  85.9334 274.1817 15.08839765208684","mean_motion":15.08839765,"eccentricity":0.0001383,"inclination_deg":53.2138,"raan_deg":70.5893,"arg_perigee_deg":85.9334,"mean_anomaly_deg":274.1817,"bstar":2.7795e-5,"rev_number":20868,"period_min":95.437569542051,"perigee_km":538.78736430805,"apogee_km":540.70085022232,"semimajor_km":6917.8811072652,"source":"CELESTRAK","updated_at":"2026-05-25T13:38:17.472275Z"}}